| time (UTC) | temp F | wind direction | speed knots | gust knots | rain 1hr in | rain 24hr in | rain mn in | humidity % | barometer mb |
| 20260506161544 | 65 | 74 | 0.0 | 2.6 | 0.00 | 0.00 | 0.00 | 71 | 1003.3 |
| 20260506160044 | 66 | 55 | 0.0 | 2.6 | 0.00 | 0.00 | 0.00 | 66 | 1003.5 |
| 20260506154600 | 67 | 257 | 0.9 | 7.8 | 0.00 | 0.00 | 0.00 | 64 | 1003.3 |
| 20260506153041 | 67 | 200 | 0.0 | 7.0 | 0.00 | 0.00 | 0.00 | 66 | 1003.3 |
| 20260506151541 | 68 | 146 | 0.9 | 8.7 | 0.00 | 0.00 | 0.00 | 63 | 1003.4 |
| 20260506150040 | 69 | 323 | 0.9 | 5.2 | 0.00 | 0.00 | 0.00 | 62 | 1003.5 |
| 20260506144549 | 69 | 319 | 0.9 | 4.3 | 0.00 | 0.00 | 0.00 | 61 | 1003.7 |
| 20260506143038 | 68 | 294 | 0.9 | 6.1 | 0.00 | 0.00 | 0.00 | 62 | 1003.3 |
| 20260506141537 | 67 | 312 | 0.0 | 5.2 | 0.00 | 0.00 | 0.00 | 63 | 1003.4 |
| 20260506140037 | 67 | 62 | 0.9 | 6.1 | 0.00 | 0.00 | 0.00 | 62 | 1003.6 |
| 20260506134535 | 67 | 271 | 0.9 | 5.2 | 0.00 | 0.00 | 0.00 | 63 | 1003.5 |
| 20260506133045 | 67 | 92 | 0.0 | 7.0 | 0.00 | 0.00 | 0.00 | 64 | 1003.6 |
| 20260506131535 | 67 | 331 | 0.0 | 5.2 | 0.00 | 0.00 | 0.00 | 64 | 1003.7 |
| 20260506130036 | 66 | 250 | 0.0 | 3.5 | 0.00 | 0.00 | 0.00 | 65 | 1003.4 |
| 20260506124534 | 66 | 329 | 0.9 | 7.0 | 0.00 | 0.00 | 0.00 | 67 | 1003.3 |
| 20260506123033 | 65 | 288 | 0.9 | 4.3 | 0.00 | 0.00 | 0.00 | 69 | 1003.3 |
| 20260506121533 | 65 | 84 | 0.0 | 4.3 | 0.00 | 0.00 | 0.00 | 68 | 1003.6 |
| 20260506120033 | 65 | 253 | 0.9 | 3.5 | 0.00 | 0.00 | 0.00 | 68 | 1003.9 |
| 20260506114539 | 64 | 53 | 0.0 | 5.2 | 0.00 | 0.02 | 0.00 | 69 | 1003.9 |
| 20260506113033 | 64 | 13 | 0.0 | 5.2 | 0.00 | 0.02 | 0.00 | 70 | 1003.7 |
| 20260506111533 | 64 | 52 | 0.0 | 3.5 | 0.00 | 0.02 | 0.00 | 70 | 1003.8 |
| 20260506110040 | 63 | 134 | 0.9 | 3.5 | 0.00 | 0.02 | 0.00 | 70 | 1003.6 |
| 20260506104556 | 63 | 319 | 0.0 | 3.5 | 0.00 | 0.02 | 0.00 | 71 | 1003.8 |
| 20260506103039 | 62 | 74 | 0.0 | 3.5 | 0.00 | 0.02 | 0.00 | 72 | 1003.7 |
| 20260506101532 | 62 | 304 | 0.9 | 4.3 | 0.00 | 0.02 | 0.00 | 73 | 1003.4 |
| 20260506100040 | 61 | 265 | 0.0 | 1.7 | 0.00 | 0.02 | 0.00 | 74 | 1003.4 |
| 20260506094534 | 61 | 115 | 0.0 | 3.5 | 0.00 | 0.02 | 0.00 | 75 | 1003.4 |
| 20260506093029 | 61 | 140 | 0.0 | 1.7 | 0.00 | 0.02 | 0.00 | 75 | 1003.4 |
| 20260506091530 | 61 | 89 | 0.0 | 0.9 | 0.00 | 0.02 | 0.00 | 75 | 1003.6 |
| 20260506090037 | 61 | 89 | 0.0 | 1.7 | 0.00 | 0.02 | 0.00 | 74 | 1003.7 |
| 20260506084527 | 62 | 360 | 0.0 | 1.7 | 0.00 | 0.02 | 0.00 | 73 | 1003.7 |
| 20260506083036 | 62 | 313 | 0.0 | 3.5 | 0.00 | 0.02 | 0.00 | 72 | 1003.7 |
| 20260506081524 | 62 | 298 | 0.0 | 3.5 | 0.00 | 0.02 | 0.00 | 71 | 1003.8 |
| 20260506073020 | 63 | 40 | 0.0 | 3.5 | 0.00 | 0.02 | 0.00 | 68 | 1003.9 |
| 20260506071522 | 63 | 93 | 0.0 | 4.3 | 0.00 | 0.02 | 0.00 | 68 | 1003.9 |
| 20260506061515 | 65 | 221 | 0.0 | 4.3 | 0.00 | 0.02 | 0.00 | 64 | 1003.9 |
| 20260506044508 | 66 | 247 | 0.9 | 4.3 | 0.00 | 0.02 | 0.00 | 58 | 1004.5 |
| 20260506043011 | 67 | 72 | 0.0 | 2.6 | 0.00 | 0.02 | 0.00 | 58 | 1004.6 |
| 20260506041505 | 67 | 42 | 0.0 | 3.5 | 0.00 | 0.02 | 0.00 | 57 | 1004.4 |
| 20260506040003 | 67 | 276 | 0.0 | 6.1 | 0.00 | 0.02 | 0.00 | 56 | 1004.4 |
| 20260506034502 | 67 | 71 | 0.0 | 3.5 | 0.00 | 0.02 | 0.02 | 55 | 1004.4 |
| 20260506033002 | 68 | 306 | 0.9 | 5.2 | 0.00 | 0.02 | 0.02 | 54 | 1004.5 |
| 20260506031502 | 68 | 323 | 0.0 | 8.7 | 0.00 | 0.02 | 0.02 | 53 | 1004.4 |
| 20260506030002 | 68 | 39 | 0.9 | 5.2 | 0.00 | 0.02 | 0.02 | 53 | 1004.1 |
| 20260506024501 | 69 | 152 | 0.9 | 8.7 | 0.00 | 0.02 | 0.02 | 53 | 1004.3 |
| 20260506023001 | 70 | 153 | 0.0 | 7.0 | 0.00 | 0.02 | 0.02 | 51 | 1004.4 |
| 20260506021504 | 70 | 144 | 0.9 | 5.2 | 0.00 | 0.02 | 0.02 | 50 | 1004.4 |
| 20260506020002 | 71 | 63 | 0.9 | 7.8 | 0.00 | 0.02 | 0.02 | 47 | 1004.3 |
| 20260506014500 | 72 | 11 | 0.0 | 4.3 | 0.00 | 0.02 | 0.02 | 44 | 1004.0 |
| 20260506013101 | 73 | 293 | 0.0 | 3.5 | 0.00 | 0.02 | 0.02 | 41 | 1003.9 |
| 20260506011600 | 74 | 54 | 0.0 | 5.2 | 0.00 | 0.02 | 0.02 | 39 | 1003.7 |
| 20260506004604 | 74 | 63 | 0.0 | 4.3 | 0.00 | 0.02 | 0.02 | 38 | 1003.4 |
| 20260506003117 | 75 | 65 | 0.0 | 4.3 | 0.00 | 0.02 | 0.02 | 37 | 1003.4 |
| 20260506001623 | 75 | 321 | 0.0 | 7.0 | 0.00 | 0.02 | 0.02 | 37 | 1003.3 |
| 20260506000109 | 76 | 302 | 0.0 | 4.3 | 0.00 | 0.02 | 0.02 | 33 | 1003.0 |
| 20260505234613 | 76 | 65 | 0.0 | 4.3 | 0.00 | 0.02 | 0.02 | 33 | 1002.9 |
| 20260505233057 | 77 | 296 | 0.0 | 4.3 | 0.00 | 0.02 | 0.02 | 29 | 1002.8 |
| 20260505231559 | 78 | 163 | 0.9 | 12.2 | 0.00 | 0.02 | 0.02 | 29 | 1002.4 |
| 20260505230058 | 78 | 346 | 0.0 | 6.1 | 0.00 | 0.02 | 0.02 | 29 | 1002.4 |
| 20260505224558 | 78 | 231 | 0.9 | 5.2 | 0.00 | 0.02 | 0.02 | 27 | 1002.2 |
| 20260505223108 | 79 | 72 | 0.9 | 7.8 | 0.00 | 0.02 | 0.02 | 26 | 1002.2 |
| 20260505221603 | 79 | 322 | 2.6 | 7.0 | 0.00 | 0.02 | 0.02 | 25 | 1001.9 |
| 20260505220100 | 80 | 282 | 0.9 | 7.0 | 0.00 | 0.02 | 0.02 | 26 | 1001.8 |
| 20260505214603 | 80 | 317 | 1.7 | 7.0 | 0.00 | 0.02 | 0.02 | 26 | 1001.8 |
| 20260505213056 | 81 | 360 | 1.7 | 8.7 | 0.00 | 0.02 | 0.02 | 26 | 1001.7 |
| 20260505211629 | 81 | 26 | 0.9 | 7.8 | 0.00 | 0.02 | 0.02 | 26 | 1001.5 |
| 20260505210058 | 81 | 327 | 2.6 | 9.6 | 0.00 | 0.02 | 0.02 | 27 | 1001.7 |
| 20260505204558 | 81 | 306 | 0.9 | 9.6 | 0.00 | 0.02 | 0.02 | 28 | 1001.5 |
| 20260505203119 | 81 | 323 | 1.7 | 7.0 | 0.00 | 0.02 | 0.02 | 29 | 1001.7 |
| 20260505201553 | 81 | 13 | 1.7 | 11.3 | 0.00 | 0.02 | 0.02 | 28 | 1001.7 |
| 20260505200052 | 81 | 105 | 1.7 | 7.0 | 0.00 | 0.02 | 0.02 | 27 | 1001.8 |
| 20260505194552 | 81 | 285 | 3.5 | 11.3 | 0.00 | 0.02 | 0.02 | 27 | 1001.9 |
| 20260505193050 | 82 | 321 | 2.6 | 9.6 | 0.00 | 0.02 | 0.02 | 30 | 1002.3 |
| 20260505191555 | 82 | 338 | 2.6 | 8.7 | 0.00 | 0.02 | 0.02 | 28 | 1002.4 |
| 20260505190049 | 82 | 209 | 0.9 | 5.2 | 0.00 | 0.02 | 0.02 | 30 | 1002.8 |
| 20260505184551 | 83 | 305 | 0.0 | 4.3 | 0.00 | 0.02 | 0.02 | 30 | 1003.0 |
| 20260505183048 | 81 | 62 | 0.9 | 7.0 | 0.00 | 0.02 | 0.02 | 33 | 1003.0 |
| 20260505181546 | 81 | 239 | 2.6 | 11.3 | 0.00 | 0.02 | 0.02 | 34 | 1003.2 |
| 20260505180047 | 81 | 24 | 0.9 | 6.1 | 0.00 | 0.02 | 0.02 | 34 | 1003.3 |
| 20260505174544 | 81 | 82 | 2.6 | 9.6 | 0.00 | 0.02 | 0.02 | 32 | 1003.4 |
| 20260505173042 | 81 | 255 | 0.9 | 7.0 | 0.00 | 0.02 | 0.02 | 35 | 1003.4 |
| 20260505171539 | 80 | 301 | 0.9 | 5.2 | 0.00 | 0.02 | 0.02 | 37 | 1003.6 |
| 20260505170038 | 80 | 312 | 1.7 | 7.0 | 0.00 | 0.02 | 0.02 | 38 | 1003.9 |
| 20260505164537 | 79 | 108 | 0.9 | 4.3 | 0.00 | 0.02 | 0.02 | 39 | 1004.0 |
| 20260505163034 | 78 | 330 | 0.9 | 7.8 | 0.00 | 0.02 | 0.02 | 37 | 1004.2 |